User: anonymous   Login
Location: Little Arabia
(41.4620°N, 81.7687°W)
Time: 11:49:29
(UTC+00:00)
Language:

Meteor 2-10 Rocket - Orbit

View from above orbital plane
View from above orbital plane
View from above satellite
View from above satellite

Ground track
Ground track

The orbit data is extracted from the following two-line orbital elements,

1 14453U 83109B   21138.23757218  .00000045  00000-0  13416-4 0  9996
2 14453  81.1650 106.5825 0103786 243.1398 115.9142 14.24748626951295
Epoch (UTC): 18 May 2021 05:42:06
Eccentricity: 0.0103786
inclination: 81.1650°
perigee height: 735 km
apogee height: 884 km
right ascension of ascending node: 106.5825°
argument of perigee: 243.1398°
revolutions per day: 14.24748626
mean anomaly at epoch: 115.9142°
orbit number at epoch: 95129

The dashed part of the orbit path shows where the satellite is in the earth's shadow,  

DLR